Regional Weather Roundup
Issued by NWS Raleigh/Durham, NC

Current Version | Previous Version | Text Only | Print | Product List | Glossary On
Versions: 1 2 3 4 5 6 7 8 9 10 11 12 13 14 15 16 17 18 19 20 21 22 23 24 25 26 27 28
000 ASUS42 KRAH 300710 RWRRAH NORTH CAROLINA WEATHER ROUNDUP NATIONAL WEATHER SERVICE RALEIGH NC 300 AM EDT FRI SEP 30 2016 NOTE: "FAIR" INDICATES FEW OR NO CLOUDS BELOW 12,000 FEET WITH NO SIGNIFICANT WEATHER AND/OR OBSTRUCTIONS TO VISIBILITY. NCZ001-053-055-056-065-067-300800- WESTERN NORTH CAROLINA CITY SKY/WX TMP DP RH WIND PRES REMARKS ASHEVILLE PTCLDY 55 48 77 N7 30.02F JEFFERSON CLOUDY 54 53 99 CALM 30.05S MORGANTON PTCLDY 57 57 100 CALM 30.03S FOG HICKORY CLOUDY 61 61 100 W3 29.98R RUTHERFORDTON MOCLDY 62 56 81 N3 29.98F MOUNT AIRY MOCLDY 65 64 94 CALM 30.03F FOG BOONE PTCLDY 53 52 97 CALM 30.05S $$ NCZ021-022-025-041-071-084-088-300800- CENTRAL NORTH CAROLINA CITY SKY/WX TMP DP RH WIND PRES REMARKS CHARLOTTE MOCLDY 69 67 93 E5 29.96F THUNDER GREENSBORO CLOUDY 71 70 96 SE5 29.99S WINSTON-SALEM CLOUDY 70 66 87 SE5 30.00S RALEIGH-DURHAM CLOUDY 73 71 93 SE5 30.00S FORT BRAGG CLOUDY 73 72 97 CALM 29.97F FAYETTEVILLE CLOUDY 72 70 93 S3 29.98S FOG BURLINGTON CLOUDY 71 71 100 E3 29.99S LAURINBURG CLOUDY 71 70 96 E3 29.98F $$ NCZ011-015-027-028-043-044-047-080-103-300800- NORTHEASTERN NORTH CAROLINA CITY SKY/WX TMP DP RH WIND PRES REMARKS ROCKY MT-WILSO CLOUDY 72 72 100 CALM 30.01F GREENVILLE RAIN 72 72 100 CALM 30.03S VSB 1/2 WASHINGTON FOG 71 71 99 CALM 30.01S VSB 1/4 ELIZABETH CITY MOCLDY 69 69 100 CALM 30.02S FOG MANTEO PTCLDY 71 71 100 CALM 30.02F CAPE HATTERAS CLEAR 77 74 90 S5 30.02S $$ NCZ078-087-090-091-093-098-101-300800- SOUTHEASTERN NORTH CAROLINA CITY SKY/WX TMP DP RH WIND PRES REMARKS LUMBERTON CLOUDY 70 69 97 CALM 29.96S FOG GOLDSBORO PTCLDY 70 70 100 E6 29.97F KINSTON MOCLDY 70 69 98 CALM 30.01S FOG KENANSVILLE FOG 70 70 100 CALM 29.99F VSB 1 NEW BERN MOCLDY 70 68 93 CALM 30.00F FOG CHERRY POINT CLEAR 73 71 93 SE5 30.00F BEAUFORT CLEAR 78 74 87 SE7 29.99F JACKSONVILLE PTCLDY 72 70 93 CALM 29.98F WILMINGTON CLEAR 76 73 91 SE6 29.98S $$

USA.gov is the U.S. government's official web portal to all federal, state and local government web resources and services.